Regional Weather Roundup
Issued by NWS

Home | Current Version | Previous Version | Graphics & Text | Print | Product List | Glossary On
Versions: 1 2 3 4 5 6 7 8 9 10 11 12 13 14 15 16 17 18 19 20 21 22 23 24 25 26 27 28 29 30 31 32 33 34 35 36 37 38 39 40 41 42 43 44 45 46 47 48 49 50
000
ASUS43 KLSX 222357
RWRMO

WEATHER SUMMARY FOR MISSOURI
NATIONAL WEATHER SERVICE SPRINGFIELD MO
600 PM CST WED FEB 22 2017

NOTE: "FAIR" INDICATES FEW OR NO CLOUDS BELOW 12,000 FEET WITH NO
       SIGNIFICANT WEATHER AND/OR OBSTRUCTIONS TO VISIBILITY.
       CURRENT SKY AND/OR WEATHER CONDITIONS ARE NOT AVAILABLE FOR
       CHILLICOTHE AND FARMINGTON.

MOZ001>031-035>038-043-044-053-054-230100-
...NORTHERN AND WESTERN MISSOURI...

CITY           SKY/WX    TMP DP  RH WIND       PRES   REMARKS
KANSAS CTY INT CLOUDY    70  34  26 NW7       29.64R
6HR MIN TEMP:  68; 6HR MAX TEMP:  79;

LEE`S SUMMIT   PTCLDY    72  37  28 S8        29.64R
6HR MIN TEMP:  70; 6HR MAX TEMP:  79;

ST JOSEPH      CLOUDY    66  36  32 NW7       29.64R
6HR MIN TEMP:  66; 6HR MAX TEMP:  77;

CHILLICOTHE      N/A     71  36  27 SW3       29.64R
6HR MIN TEMP:  71; 6HR MAX TEMP:  78;


$$
MOZ066>068-077>081-088>096-101>105-230100-
...SOUTHWEST MISSOURI...

CITY           SKY/WX    TMP DP  RH WIND       PRES   REMARKS
SPRINGFIELD    CLEAR     67  55  65 S8        29.71R
6HR MIN TEMP:  60; 6HR MAX TEMP:  72;

JOPLIN         CLEAR     70  42  36 W6        29.70S
6HR MIN TEMP:  70; 6HR MAX TEMP:  78;

BRANSON        MOCLDY    68  55  64 SE8       29.74S

$$
MOZ032>034-039>042-045>050-055>058-069>072-230100-
...CENTRAL MISSOURI...

CITY           SKY/WX    TMP DP  RH WIND       PRES   REMARKS
COLUMBIA       NOT AVBL
JEFFERSON CITY CLEAR     67  53  61 SE8       29.67F
6HR MIN TEMP:  58; 6HR MAX TEMP:  70;

ROLLA          CLEAR     61  52  72 S10       29.71R
6HR MIN TEMP:  58; 6HR MAX TEMP:  71; 6HR PCP: TRACE;

SEDALIA        CLEAR     71  46  40 SW8       29.68R
6HR MIN TEMP:  66; 6HR MAX TEMP:  76;

WARRENSBURG    CLOUDY    70  43  37 S8        29.65R

$$
MOZ051-052-059>065-230100-
...EAST CENTRAL MISSOURI...

CITY           SKY/WX    TMP DP  RH WIND       PRES   REMARKS
ST LOUIS INTL  MOCLDY    69  55  60 E5        29.70F
6HR MIN TEMP:  61; 6HR MAX TEMP:  74;


$$
MOZ072>076-082>087-097>100-106>115-230100-
...SOUTH CENTRAL AND SOUTHEAST MISSOURI...

CITY           SKY/WX    TMP DP  RH WIND       PRES   REMARKS
CAPE GIRARDEAU CLEAR     63  56  78 S8        29.78F
6HR MIN TEMP:  63; 6HR MAX TEMP:  71;

POPLAR BLUFF   CLEAR     64  58  80 SW6       29.78S
6HR MIN TEMP:  64; 6HR MAX TEMP:  70;

WEST PLAINS    CLEAR     61  55  81 SE6       29.79R
6HR MIN TEMP:  61; 6HR MAX TEMP:  68;


$$



USA.gov is the U.S. government's official web portal to all federal, state and local government web resources and services.